TimeCST,TemperatureF,Dew PointF,Humidity,Sea Level PressureIn,VisibilityMPH,Wind Direction,Wind SpeedMPH,Gust SpeedMPH,PrecipitationIn,Events,Conditions,WindDirDegrees,DateUTC
12:15 AM,26.6,21.2,80,30.12,10.0,Calm,Calm,-,N/A,,Clear,0,2013-02-23 06:15:00
12:35 AM,26.6,21.2,80,30.12,10.0,Calm,Calm,-,N/A,,Clear,0,2013-02-23 06:35:00
12:55 AM,26.6,21.2,80,30.12,10.0,NNW,3.5,-,N/A,,Clear,330,2013-02-23 06:55:00
1:15 AM,24.8,21.2,86,30.12,10.0,Calm,Calm,-,N/A,,Clear,0,2013-02-23 07:15:00
1:35 AM,23.0,21.2,93,30.11,10.0,Calm,Calm,-,N/A,,Clear,0,2013-02-23 07:35:00
1:55 AM,23.0,21.2,93,30.11,10.0,Calm,Calm,-,N/A,,Clear,0,2013-02-23 07:55:00
2:15 AM,23.0,21.2,93,30.10,10.0,Calm,Calm,-,N/A,,Clear,0,2013-02-23 08:15:00
2:35 AM,23.0,21.2,93,30.10,7.0,Calm,Calm,-,N/A,,Clear,0,2013-02-23 08:35:00
2:55 AM,23.0,21.2,93,30.10,10.0,Calm,Calm,-,N/A,,Clear,0,2013-02-23 08:55:00
3:15 AM,23.0,21.2,93,30.09,10.0,Calm,Calm,-,N/A,,Clear,0,2013-02-23 09:15:00
3:35 AM,21.2,21.2,100,30.08,7.0,Calm,Calm,-,N/A,,Clear,0,2013-02-23 09:35:00
3:55 AM,21.2,21.2,100,30.08,7.0,Calm,Calm,-,N/A,,Clear,0,2013-02-23 09:55:00
4:15 AM,21.2,21.2,100,30.07,7.0,Calm,Calm,-,N/A,,Clear,0,2013-02-23 10:15:00
4:35 AM,21.2,19.4,93,30.06,5.0,Calm,Calm,-,N/A,,Clear,0,2013-02-23 10:35:00
4:55 AM,21.2,19.4,93,30.05,7.0,Calm,Calm,-,N/A,,Clear,0,2013-02-23 10:55:00
5:15 AM,21.2,19.4,93,30.05,7.0,Calm,Calm,-,N/A,,Clear,0,2013-02-23 11:15:00
5:35 AM,21.2,21.2,100,30.06,7.0,Calm,Calm,-,N/A,,Clear,0,2013-02-23 11:35:00
5:55 AM,21.2,19.4,93,30.05,7.0,Calm,Calm,-,N/A,,Clear,0,2013-02-23 11:55:00
6:15 AM,21.2,19.4,93,30.05,7.0,Calm,Calm,-,N/A,,Clear,0,2013-02-23 12:15:00
6:35 AM,19.4,19.4,100,30.06,7.0,Calm,Calm,-,N/A,,Clear,0,2013-02-23 12:35:00
6:55 AM,19.4,19.4,100,30.06,7.0,Calm,Calm,-,N/A,,Clear,0,2013-02-23 12:55:00
7:15 AM,21.2,19.4,93,30.06,5.0,Calm,Calm,-,N/A,,Clear,0,2013-02-23 13:15:00
7:35 AM,21.2,21.2,100,30.06,5.0,Calm,Calm,-,N/A,,Clear,0,2013-02-23 13:35:00
7:55 AM,23.0,23.0,100,30.06,5.0,Calm,Calm,-,N/A,,Clear,0,2013-02-23 13:55:00
8:15 AM,26.6,23.0,86,30.06,7.0,Calm,Calm,-,N/A,,Clear,0,2013-02-23 14:15:00
8:55 AM,30.2,24.8,80,30.07,10.0,North,3.5,-,N/A,,Clear,10,2013-02-23 14:55:00
9:15 AM,30.2,23.0,75,30.07,10.0,Calm,Calm,-,N/A,,Clear,0,2013-02-23 15:15:00
9:35 AM,32.0,23.0,69,30.07,10.0,Calm,Calm,-,N/A,,Clear,0,2013-02-23 15:35:00
9:55 AM,33.8,23.0,65,30.08,10.0,Calm,Calm,-,N/A,,Clear,0,2013-02-23 15:55:00
10:15 AM,33.8,21.2,60,30.08,10.0,Calm,Calm,-,N/A,,Clear,0,2013-02-23 16:15:00
10:35 AM,33.8,21.2,60,30.07,10.0,Calm,Calm,-,N/A,,Clear,0,2013-02-23 16:35:00
10:55 AM,35.6,21.2,56,30.07,10.0,Calm,Calm,-,N/A,,Clear,0,2013-02-23 16:55:00
11:15 AM,37.4,19.4,48,30.07,10.0,Calm,Calm,-,N/A,,Clear,0,2013-02-23 17:15:00
11:35 AM,39.2,21.2,49,30.07,10.0,Calm,Calm,-,N/A,,Clear,0,2013-02-23 17:35:00
11:55 AM,39.2,23.0,52,30.07,10.0,Calm,Calm,-,N/A,,Clear,0,2013-02-23 17:55:00
12:15 PM,39.2,21.2,49,30.08,10.0,WSW,5.8,-,N/A,,Clear,240,2013-02-23 18:15:00
12:35 PM,41.0,21.2,45,30.08,10.0,West,3.5,-,N/A,,Clear,270,2013-02-23 18:35:00
12:55 PM,41.0,21.2,45,30.06,10.0,West,4.6,-,N/A,,Clear,280,2013-02-23 18:55:00
1:15 PM,41.0,23.0,49,30.05,10.0,Calm,Calm,-,N/A,,Clear,0,2013-02-23 19:15:00
1:35 PM,42.8,21.2,42,30.04,10.0,WSW,4.6,-,N/A,,Clear,240,2013-02-23 19:35:00
1:55 PM,42.8,21.2,42,30.02,10.0,Calm,Calm,-,N/A,,Clear,0,2013-02-23 19:55:00
2:15 PM,42.8,21.2,42,30.01,10.0,Calm,Calm,-,N/A,,Clear,0,2013-02-23 20:15:00
2:35 PM,44.6,21.2,39,30.00,10.0,Calm,Calm,-,N/A,,Clear,0,2013-02-23 20:35:00
2:55 PM,44.6,23.0,43,29.99,10.0,NW,3.5,-,N/A,,Clear,310,2013-02-23 20:55:00
3:15 PM,44.6,23.0,43,29.98,10.0,Calm,Calm,-,N/A,,Clear,0,2013-02-23 21:15:00
3:35 PM,44.6,23.0,43,29.97,10.0,Calm,Calm,-,N/A,,Clear,0,2013-02-23 21:35:00
3:55 PM,44.6,23.0,43,29.96,10.0,Calm,Calm,-,N/A,,Clear,0,2013-02-23 21:55:00
4:15 PM,44.6,23.0,43,29.96,10.0,Calm,Calm,-,N/A,,Clear,0,2013-02-23 22:15:00
4:35 PM,44.6,23.0,43,29.97,10.0,Calm,Calm,-,N/A,,Clear,0,2013-02-23 22:35:00
4:55 PM,44.6,23.0,43,29.96,10.0,Calm,Calm,-,N/A,,Clear,0,2013-02-23 22:55:00
5:15 PM,44.6,23.0,43,29.97,10.0,Calm,Calm,-,N/A,,Clear,0,2013-02-23 23:15:00
5:35 PM,42.8,23.0,46,29.97,10.0,Calm,Calm,-,N/A,,Clear,0,2013-02-23 23:35:00
5:55 PM,42.8,23.0,46,29.96,10.0,Calm,Calm,-,N/A,,Clear,0,2013-02-23 23:55:00
6:15 PM,41.0,23.0,49,29.96,10.0,Calm,Calm,-,N/A,,Clear,0,2013-02-24 00:15:00
6:35 PM,37.4,23.0,56,29.97,10.0,Calm,Calm,-,N/A,,Clear,0,2013-02-24 00:35:00
6:55 PM,33.8,28.4,81,29.99,10.0,Calm,Calm,-,N/A,,Clear,0,2013-02-24 00:55:00
7:15 PM,35.6,24.8,65,29.99,10.0,Calm,Calm,-,N/A,,Clear,0,2013-02-24 01:15:00
7:35 PM,32.0,28.4,87,29.98,10.0,Calm,Calm,-,N/A,,Clear,0,2013-02-24 01:35:00
7:55 PM,32.0,26.6,80,29.98,10.0,Calm,Calm,-,N/A,,Clear,0,2013-02-24 01:55:00
8:15 PM,30.2,26.6,86,29.98,10.0,Calm,Calm,-,N/A,,Clear,0,2013-02-24 02:15:00
8:35 PM,32.0,26.6,80,29.98,10.0,Calm,Calm,-,N/A,,Clear,0,2013-02-24 02:35:00
8:55 PM,32.0,26.6,80,29.97,10.0,Calm,Calm,-,N/A,,Clear,0,2013-02-24 02:55:00
9:15 PM,30.2,26.6,86,29.99,10.0,Calm,Calm,-,N/A,,Clear,0,2013-02-24 03:15:00
9:35 PM,28.4,26.6,93,29.98,10.0,Calm,Calm,-,N/A,,Clear,0,2013-02-24 03:35:00
9:55 PM,28.4,24.8,86,29.99,10.0,Calm,Calm,-,N/A,,Clear,0,2013-02-24 03:55:00
10:15 PM,28.4,24.8,86,29.98,10.0,Calm,Calm,-,N/A,,Clear,0,2013-02-24 04:15:00
10:35 PM,28.4,24.8,86,29.98,10.0,Calm,Calm,-,N/A,,Clear,0,2013-02-24 04:35:00
10:55 PM,28.4,24.8,86,29.97,10.0,Calm,Calm,-,N/A,,Clear,0,2013-02-24 04:55:00
11:15 PM,28.4,26.6,93,29.98,10.0,Calm,Calm,-,N/A,,Clear,0,2013-02-24 05:15:00
11:35 PM,28.4,24.8,86,29.98,10.0,Calm,Calm,-,N/A,,Clear,0,2013-02-24 05:35:00
11:55 PM,26.6,24.8,93,29.97,10.0,Calm,Calm,-,N/A,,Clear,0,2013-02-24 05:55:00